782  
ASUS44 KMOB 151812  
RWRMOB  
REGIONAL WEATHER ROUNDUP  
NATIONAL WEATHER SERVICE MOBILE AL  
100 PM CDT MON JUL 15 2019  
 
NOTE: "FAIR" INDICATES FEW OR NO CLOUDS BELOW 12,000 FEET WITH NO  
SIGNIFICANT WEATHER AND/OR S TO VISIBILITY
.  
 
* THESE STATIONS ARE PART OF THE UNIVERSITY OF SOUTH ALABAMA  
MESONET AND ARE NOT UNDER NWS OR FAA QUALITY CONTROL.
 
 
ALZ061>064-151900-  
COASTAL ALABAMA  
 
CITY SKY/WX TMP DP RH WIND PRES REMARKS
 
MOBILE REG APT PTSUNNY 89 75 63 S17 30.11F HX 99  
6HR MIN TEMP: 81; 6HR MAX TEMP: 91; 6HR PCP: 0.03;  
 
BROOKLEY FIELD FAIR 91 79 67 SE12G18 30.11F HX 107  
6HR MIN TEMP: 84; 6HR MAX TEMP: 92;  
 
USA CAMPUS* N/A 88 73 62 CALM 30.12S HX 96  
DOG RIVER* N/A 86 79 79 SE13 30.12S HX 99  
 
 
CITY SKY/WX TMP DP RH WIND PRES REMARKS
 
GULF SHORES PTSUNNY 89 78 70 S12G21 30.11F HX 102  
 

 
 
ALZ051>060-151900-  
INTERIOR SOUTHWEST AND SOUTH CENTRAL ALABAMA  
 
CITY SKY/WX TMP DP RH WIND PRES REMARKS
 
GREENVILLE FAIR 92 69 47 SW8 30.10F HX 97  
6HR MIN TEMP: 75; 6HR MAX TEMP: 92;  
 
EVERGREEN FAIR 91 72 53 SW9 30.11F HX 98  
6HR MIN TEMP: 78; 6HR MAX TEMP: 93; 6HR PCP: 0.12;  
 
ATMORE* N/A N/A N/A N/A SW3 30.12F  
ANDALUSIA/OPP PTSUNNY 92 72 51 W8 30.11F HX 99  
6HR MIN TEMP: 78; 6HR MAX TEMP: 94; 6HR PCP: TRACE;  
 
ANDALUSIA* NOT AVBL  
FLORALA APT FAIR 92 70 48 S13G22 30.13F HX 97  
6HR MIN TEMP: 75; 6HR MAX TEMP: 93;  
 
FLORALA* N/A 57 30 35 E5 30.12F  
 

 
 
FLZ001>006-151900-  
WESTERN FLORIDA PANHANDLE  
 
CITY SKY/WX TMP DP RH WIND PRES REMARKS
 
PENSACOLA PTSUNNY 89 79 72 S13 30.11F HX 104  
6HR MIN TEMP: 82; 6HR MAX TEMP: 90; 6HR PCP: 0.01;  
 
NAS PENSACOLA PTSUNNY 89 79 72 S14 30.11F HX 104  
6HR MIN TEMP: 84; 6HR MAX TEMP: 90;  
 
MILTON FAIR 90 77 65 S12G21 30.11F HX 103  
6HR MIN TEMP: 77; 6HR MAX TEMP: 92; 6HR PCP: TRACE;  
 
WHTNG S FIELD PTSUNNY 90 76 63 S15G22 30.11F HX 101  
6HR MIN TEMP: 78; 6HR MAX TEMP: 91;  
 
 
CITY SKY/WX TMP DP RH WIND PRES REMARKS
 
JAY* N/A 88 70 55 S13 30.12S  
DUKE FIELD PTSUNNY 91 72 53 S12 30.12S HX 98  
CRESTVIEW FAIR 92 72 51 S9 30.13F HX 99  
6HR MIN TEMP: 78; 6HR MAX TEMP: 93; 6HR PCP: TRACE;  
 
VALPARAISO PTSUNNY 89 76 65 SW12 30.12F HX 100  
6HR MIN TEMP: 83; 6HR MAX TEMP: 90; 6HR PCP: TRACE;  
 
DESTIN FAIR 88 78 72 SE9 30.12F HX 101  
6HR MIN TEMP: 82; 6HR MAX TEMP: 89;  
 

 
 
MSZ076-079-151900-  
INTERIOR SOUTHEAST MISSISSIPPI  
 
CITY SKY/WX TMP DP RH WIND PRES REMARKS
 
LEAKESVILLE* N/A 84 77 79 SW8 30.11S  
AGRICOLA* N/A 86 73 66 CALM 30.12S  
 

 
 
MARINE OBSERVATIONS  
 
STATION/POSITION TIME TEMP WIND PRES WAVE
 
AIR SEA DIR/SP/G HT/PER  
(UTC) (F) (DEG/KT/KT) (MB) (FT/S)  
PETIT BOIS ISLND 1724 87 160/ 10/ 12 1019.5F  
GRAND BAY 1630 84 180/ 9 1021.0R  
KATRINA CUT 1730 170/ 13 1019.6F  
CEDAR POINT 1700 85 160/ 13 1019.3  
E DAUPHIN ISLAND 1800 84 150/ 12/ 14 1019.5F  
USCG MOBILE BAY 1730 86 82 170/ 9/ 15 1019.6F  
STATE DOCKS 1730 84 83 1019.6F  
MEAHER PARK 1730 84 190/ 12 1019.3F  
WEEKS BAY 1630 87 1020.0R  
FORT MORGAN 1730 85 170/ 14/ 16 1019.8F  
12 S ORANGE BCH 1750 85 85 160/ 12/ 14 1020.4F 3/ 6  
PENSACOLA BAY 1730 87 84 180/ 10/ 13 1020.3S  
64 S DAUPHIN ISL 1750 84 83 150/ 10/ 14 1019.6S 4/ 6  
 

 
 
SELECTED LOCATIONS ACROSS THE REGION  
 
CITY SKY/WX TMP DP RH WIND PRES REMARKS
 
NEW ORLEANS CLOUDY 85 72 65 SE10 30.06F THUNDER  
GULFPORT PTSUNNY 86 79 79 S13 30.08F HX 99  
PASCAGOULA AP FAIR 90 76 63 S9 30.10S HX 101  
PASCAGOULA* N/A 86 79 79 CALM 30.09F HX 99  
HATTIESBURG FAIR 79 72 79 S8 30.09F  
LAUREL PTSUNNY 82 79 89 S5 30.09S THUNDER  
MERIDIAN PTSUNNY 84 77 79 S10 30.07F  
JACKSON FAIR 82 75 79 S16 30.01F  
MONTGOMERY FAIR 92 73 53 S7 30.12S HX 100  
TROY PTSUNNY 90 74 59 S9 30.13F HX 99  
ASHFORD* NOT AVBL  
DOTHAN FAIR 91 71 51 S7 30.16F HX 97  
PANAMA CITY FAIR 90 73 57 S10 30.12S HX 98  
 

 
 
 
 
CLICK HERE TO GO TO PREVIOUS BULLETINS.

The Nexlab AL Page
The Nexlab FL Page
The Nexlab MS Page Main Text Page